FW9022 Weather Reports


Display with metric or nautical units.
time (UTC)temp
F
wind
direction
speed
MPH
gust
MPH
rain 1hr
in
rain 24hr
in
rain mn
in
humidity
%
barometer
mb
20260903002831 78 60 0.0 0.0 0.00 0.00 0.00 82 1020.3
20260903001825 79 60 0.0 0.0 0.00 0.00 0.00 82 1020.3
20260903000850 80 60 1.0 1.0 0.00 0.00 0.00 79 1020.5
20260902235835 81 60 0.0 0.0 0.00 0.00 0.00 77 1020.2
20260902234827 82 60 0.0 1.0 0.00 0.00 0.00 75 1020.2
20260902233821 83 60 0.0 0.0 0.00 0.00 0.00 73 1020.0
20260902232835 85 60 0.0 0.0 0.00 0.00 0.00 69 1019.9
20260902231853 86 60 0.0 0.0 0.00 0.00 0.00 64 1019.9
20260902230836 87 60 0.0 0.0 0.00 0.00 0.00 62 1019.9
20260902225837 87 60 0.0 0.0 0.00 0.00 0.00 59 1019.9
20260902224830 87 60 0.0 0.0 0.00 0.00 0.00 58 1019.9
20260902223827 88 60 0.0 2.0 0.00 0.00 0.00 58 1019.9
20260902222842 88 60 0.0 1.0 0.00 0.00 0.00 57 1019.9
20260902221835 89 60 0.0 2.0 0.00 0.00 0.00 55 1019.9
20260902220842 89 60 0.0 2.0 0.00 0.00 0.00 53 1020.0
20260902215822 90 60 0.0 0.0 0.00 0.00 0.00 53 1019.7
20260902214835 91 60 0.0 1.0 0.00 0.00 0.00 49 1019.7
20260902213830 92 60 0.0 0.0 0.00 0.00 0.00 48 1019.7
20260902212827 91 60 0.0 2.0 0.00 0.00 0.00 48 1019.8
20260902211821 91 40 0.0 3.0 0.00 0.00 0.00 48 1019.8
20260902210846 91 42 1.0 3.0 0.00 0.00 0.00 45 1019.9
20260902205830 92 172 0.0 2.0 0.00 0.00 0.00 43 1019.8
20260902204822 91 32 0.0 2.0 0.00 0.00 0.00 46 1019.8
20260902203836 91 38 1.0 3.0 0.00 0.00 0.00 44 1019.9
20260902202830 91 40 0.0 3.0 0.00 0.00 0.00 46 1020.0
20260902201847 91 161 0.0 4.0 0.00 0.00 0.00 46 1020.0
20260902200850 91 38 1.0 3.0 0.00 0.00 0.00 44 1020.2
20260902195830 91 24 0.0 4.0 0.00 0.00 0.00 46 1020.3
20260902194823 91 119 1.0 2.0 0.00 0.00 0.00 46 1020.3
20260902193842 91 127 0.0 5.0 0.00 0.00 0.00 48 1020.5
20260902192835 91 28 1.0 4.0 0.00 0.00 0.00 47 1020.8
20260902191828 91 26 0.0 2.0 0.00 0.00 0.00 46 1020.8
20260902190833 90 36 0.0 4.0 0.00 0.00 0.00 48 1021.5
20260902185836 91 53 1.0 3.0 0.00 0.00 0.00 50 1021.6
20260902184830 91 118 1.0 6.0 0.00 0.00 0.00 50 1021.6
20260902183824 91 129 1.0 2.0 0.00 0.00 0.00 51 1021.9
20260902182821 91 129 1.0 2.0 0.00 0.00 0.00 52 1021.2
20260902181835 90 71 0.0 4.0 0.00 0.00 0.00 53 1021.2
20260902180839 90 69 1.0 4.0 0.00 0.00 0.00 52 1022.1
20260902175818 90 113 1.0 2.0 0.00 0.00 0.00 52 1021.4
20260902174836 89 113 1.0 2.0 0.00 0.00 0.00 54 1021.4
20260902173831 89 113 1.0 2.0 0.00 0.00 0.00 54 1021.6
20260902172824 89 113 0.0 2.0 0.00 0.00 0.00 55 1021.8
20260902171822 89 113 2.0 2.0 0.00 0.00 0.00 54 1021.8
20260902170846 89 113 0.0 1.0 0.00 0.00 0.00 60 1022.6
20260902165826 89 113 0.0 2.0 0.00 0.00 0.00 62 1022.9
20260902164820 88 113 0.0 3.0 0.00 0.00 0.00 64 1022.9
20260902163837 87 134 1.0 3.0 0.00 0.00 0.00 65 1022.4
20260902162830 87 115 1.0 2.0 0.00 0.00 0.00 65 1022.5
20260902161824 86 52 0.0 3.0 0.00 0.00 0.00 67 1022.5
20260902160832 86 61 1.0 4.0 0.00 0.00 0.00 67 1023.6
20260902155832 86 96 0.0 2.0 0.00 0.00 0.00 67 1023.7
20260902154826 86 96 0.0 3.0 0.00 0.00 0.00 68 1023.7
20260902153820 85 94 1.0 3.0 0.00 0.00 0.00 68 1023.7
20260902152837 85 130 0.0 3.0 0.00 0.00 0.00 71 1022.8
20260902151831 84 135 3.0 4.0 0.00 0.00 0.00 71 1022.8
20260902150836 84 142 2.0 4.0 0.00 0.00 0.00 73 1022.6
20260902145820 84 192 1.0 2.0 0.00 0.00 0.00 71 1022.6
20260902144834 83 192 1.0 3.0 0.00 0.00 0.00 74 1022.6
20260902143829 82 128 1.0 3.0 0.00 0.00 0.00 74 1022.8
20260902142822 82 63 0.0 1.0 0.00 0.00 0.00 75 1022.8
20260902141821 81 207 0.0 1.0 0.00 0.00 0.00 77 1022.8
20260902140845 80 209 1.0 2.0 0.00 0.00 0.00 77 1023.0
20260902135844 79 134 0.0 0.0 0.00 0.00 0.00 80 1023.1
20260902134820 78 134 0.0 1.0 0.00 0.00 0.00 82 1023.1
20260902133834 76 134 0.0 2.0 0.00 0.00 0.00 84 1023.5
20260902132826 75 133 0.0 3.0 0.00 0.00 0.00 87 1023.7
20260902131819 74 165 0.0 1.0 0.00 0.00 0.00 89 1023.7
20260902130848 72 165 0.0 1.0 0.00 0.00 0.00 93 1023.7
20260902125827 70 165 0.0 1.0 0.00 0.00 0.00 97 1022.9
20260902124842 68 136 0.0 1.0 0.00 0.00 0.00 98 1022.9
20260902123835 67 22 0.0 1.0 0.00 0.00 0.00 98 1023.2
20260902122833 66 22 0.0 0.0 0.00 0.00 0.00 98 1023.2
20260902121826 65 22 0.0 0.0 0.00 0.00 0.00 98 1023.2
20260902120850 65 21 0.0 0.0 0.00 0.00 0.00 98 1022.7
20260902115834 64 22 0.0 0.0 0.00 0.00 0.00 98 1022.5
20260902114828 64 21 0.0 0.0 0.00 0.00 0.00 98 1022.5
20260902113822 64 22 0.0 0.0 0.00 0.00 0.00 98 1022.4
20260902112834 64 22 0.0 0.0 0.00 0.00 0.00 98 1022.3
20260902111832 64 22 0.0 0.0 0.00 0.00 0.00 98 1022.3
20260902110837 64 22 0.0 0.0 0.00 0.00 0.00 98 1022.9
20260902105857 64 22 0.0 0.0 0.00 0.00 0.00 98 1023.0
20260902104830 64 22 0.0 0.0 0.00 0.00 0.00 98 1023.0
20260902103827 64 21 0.0 0.0 0.00 0.00 0.00 97 1022.9
20260902102821 65 21 0.0 0.0 0.00 0.00 0.00 97 1022.7
20260902101835 65 22 0.0 0.0 0.00 0.00 0.00 97 1022.7
20260902100843 65 21 0.0 0.0 0.00 0.00 0.00 98 1022.5
20260902095824 65 22 0.0 0.0 0.00 0.00 0.00 97 1022.3
20260902094837 65 22 0.0 0.0 0.00 0.00 0.00 97 1022.3
20260902093831 65 21 0.0 0.0 0.00 0.00 0.00 97 1022.2
20260902092830 65 22 0.0 0.0 0.00 0.00 0.00 97 1021.9
20260902091844 65 22 0.0 0.0 0.00 0.00 0.00 97 1021.9
20260902090848 65 21 0.0 0.0 0.00 0.00 0.00 97 1021.5
20260902085848 65 22 0.0 0.0 0.00 0.00 0.00 97 1021.6
20260902084824 66 21 0.0 0.0 0.00 0.00 0.00 97 1021.6
20260902083859 66 22 0.0 0.0 0.00 0.00 0.00 97 1021.5
20260902082832 66 22 0.0 0.0 0.00 0.00 0.00 97 1021.5
20260902081845 66 21 0.0 0.0 0.00 0.00 0.00 97 1021.5
20260902080852 66 22 0.0 0.0 0.00 0.00 0.00 97 1021.5
20260902075832 66 22 0.0 0.0 0.00 0.00 0.00 97 1021.6
20260902074827 66 22 0.0 0.0 0.00 0.00 0.00 97 1021.6
20260902073821 66 21 0.0 0.0 0.00 0.00 0.00 97 1021.5
20260902072836 66 22 0.0 0.0 0.00 0.00 0.00 97 1021.5
20260902071829 67 22 0.0 0.0 0.00 0.00 0.00 97 1021.5
20260902070853 67 21 0.0 0.0 0.00 0.00 0.00 97 1021.5
20260902065835 67 22 0.0 0.0 0.00 0.00 0.00 97 1021.6
20260902064829 67 22 0.0 0.0 0.00 0.00 0.00 96 1021.6
20260902063823 67 22 0.0 0.0 0.00 0.00 0.00 96 1021.6
20260902062836 67 22 0.0 0.0 0.00 0.00 0.00 96 1021.6
20260902061834 68 22 0.0 0.0 0.00 0.00 0.00 96 1021.6
20260902060838 68 22 0.0 0.0 0.00 0.00 0.00 96 1021.7
20260902055817 68 21 0.0 0.0 0.00 0.00 0.00 96 1021.8
20260902054836 68 21 0.0 0.0 0.00 0.00 0.00 96 1021.8
20260902053829 68 21 0.0 0.0 0.00 0.00 0.00 96 1021.8
20260902052824 68 21 0.0 0.0 0.00 0.00 0.00 96 1021.9
20260902051857 68 22 0.0 0.0 0.00 0.00 0.00 96 1021.9
20260902050844 68 21 0.0 0.0 0.00 0.00 0.00 96 1022.0
20260902045823 69 22 0.0 0.0 0.00 0.00 0.00 96 1021.7
20260902044817 69 21 0.0 0.0 0.00 0.00 0.00 95 1021.7
20260902043830 69 22 0.0 0.0 0.00 0.00 0.00 95 1021.5
20260902042828 69 22 0.0 0.0 0.00 0.00 0.00 96 1021.5
20260902041840 69 21 0.0 0.0 0.00 0.00 0.00 95 1021.5
20260902040903 69 22 0.0 0.0 0.00 0.00 0.00 95 1021.4
20260902035822 70 22 0.0 0.0 0.00 0.00 0.00 95 1021.2
20260902034820 70 22 0.0 0.0 0.00 0.00 0.00 95 1021.2
20260902033854 70 22 0.0 1.0 0.00 0.00 0.00 95 1021.2
20260902032826 70 22 0.0 0.0 0.00 0.00 0.00 95 1021.3
20260902031824 70 22 0.0 1.0 0.00 0.00 0.00 94 1021.3
20260902030849 71 22 0.0 0.0 0.00 0.00 0.00 94 1021.4
20260902025828 71 22 0.0 0.0 0.00 0.00 0.00 94 1021.5
20260902024822 71 22 0.0 1.0 0.00 0.00 0.00 94 1021.5
20260902023820 71 22 0.0 0.0 0.00 0.00 0.00 93 1021.3
20260902022853 72 21 0.0 0.0 0.00 0.00 0.00 93 1021.4
20260902021827 72 21 0.0 0.0 0.00 0.00 0.00 92 1021.4
20260902020851 72 22 0.0 0.0 0.00 0.00 0.00 92 1021.7
20260902015833 72 22 0.0 0.0 0.00 0.00 0.00 92 1021.6
20260902014828 73 22 0.0 0.0 0.00 0.00 0.00 91 1021.6
20260902013821 73 22 0.0 0.0 0.00 0.00 0.00 90 1021.5
20260902012839 74 22 0.0 0.0 0.00 0.00 0.00 90 1021.2
20260902011832 74 22 0.0 0.0 0.00 0.00 0.00 89 1021.2
20260902010836 75 21 0.0 0.0 0.00 0.00 0.00 88 1021.6
20260902005836 75 22 0.0 0.0 0.00 0.00 0.00 87 1021.4
20260902004834 76 22 0.0 0.0 0.00 0.00 0.00 86 1021.4
20260902003828 76 22 0.0 0.0 0.00 0.00 0.00 85 1021.3